www.pogodaiklimat.ru

Погода и климат >> Архив погоды >> Индонезия >> Чуруг


ПОГОДА в Чуруге

  • Прогноз погоды в Чуруге
  • Монитор погоды в Чуруге

АРХИВ ПОГОДЫ в Чуруге

Время (UTC), дата Ветер
(напр.,м/с)
 
Видим.   Явления Облачность Т
(С)
Тd
(С)
f
(%)
Тe
(С)
Тes
(С)
Комфортность P
(гПа)
Po
(гПа)
Тmin
(С)
Tmax
(С)
R
(мм)
R24
(мм)
S
(см)
06 14.09 штиль 0 10 км 5/1 600 м
[Sc As trans Ci fib]
+32.3 +16.1 38 +35 +54 опасность
солнечного
удара
1012.1 1006.8
09 14.09 СЗ 6 10 км 6/3 540 м
[Sc As trans Ci fib]
+29.9 +18.3 50 +35 +36 очень
душно
1011.2 1005.9
12 14.09 С 3 8000 м 6/3 540 м
[Sc As trans Ci fib]
+26.4 +19.9 67 +32 +32 очень
душно
1012.7 1007.4 +32.9
15 14.09 ЮЗ 2 6000 м 6/3 540 м
[Sc As trans Ci fib]
+23.5 +20.8 85 +29 +29 душно 1013.8 1008.5
18 14.09 З 2 8000 м 8/3 540 м
[Sc As trans Ci fib]
+22.0 +20.1 89 +28 +28 душно 1013.0 1007.7
21 14.09 штиль 0 5000 м мгла 8/3 540 м
[Sc As trans Ci fib]
+21.1 +19.9 93 +26 +26 душно 1012.2 1006.9
00 15.09 штиль 0 2100 м 8/3 540 м
[Sc As trans Ci fib]
+20.7 +19.8 95 +25 +26 комфорт 1013.0 1007.7 +20.2 213
03 15.09 ЮВ 4 7000 м 6/3 600 м
[Cu hum As trans Ci fib]
+29.4 +20.3 58 +36 +43 очень
душно
1013.1 1007.8
06 15.09 СЗ 5 10 км 9/5 600 м
[Cu med, cong As trans Ci fib]
+32.2 +19.3 46 +38 +41 очень
душно
1009.9 1004.6
09 15.09 С 4 10 км 6/3 540 м
[Cu hum As trans Ci fib]
+30.0 +21.9 62 +39 +40 очень
душно
1009.1 1003.8
12 15.09 штиль 0 6000 м 8/4 600 м
[Sc As trans Ci fib]
+27.2 +21.9 73 +35 +35 очень
душно
1011.2 1005.9 +32.8
15 15.09 Ю 2 5000 м мгла 8/4 600 м
[Sc As op Ci fib]
+25.4 +22.6 85 +33 +33 очень
душно
1012.2 1006.9
18 15.09 ЮЗ 2 3900 м 8/3 600 м
[Sc As trans Ci fib]
+24.2 +21.0 82 +30 +30 очень
душно
1011.3 1006.0
21 15.09 штиль 0 3900 м мгла 8/3 600 м
[Sc As trans Ci fib]
+23.8 +21.8 89 +31 +31 очень
душно
1011.3 1006.0
00 16.09 Ю 2 2900 м мгла 5/1 600 м
[Sc Ac trans Ci fib]
+24.5 +22.5 89 +32 +33 очень
душно
1012.2 1006.9 +23.8
03 16.09 ЮВ 3 10 км 8/4 540 м
[Cu hum As op Ci fib]
+30.4 +21.1 58 +38 +44 очень
душно
1012.6 1007.3
06 16.09 СВ 2 9000 м 8/4 540 м
[Cu med, cong As op Ci sp]
+31.7 +22.9 60 +42 +51 опасность
перегрева
1009.8 1004.5
09 16.09 СВ 3 7000 м 8/4 540 м
[Sc As op Ci sp]
+31.6 +23.4 62 +42 +44 опасность
перегрева
1008.7 1003.4
12 16.09 СВ 2 6000 м 8/4 540 м
[Sc As op Ci sp]
+27.8 +23.4 77 +38 +38 очень
душно
1010.5 1005.2 +32.8
15 16.09 ЮВ 1 8000 м 8/3 540 м
[Sc As op Ci sp]
+25.2 +22.0 82 +32 +32 очень
душно
1012.4 1007.1
18 16.09 ЮВ 2 5000 м 5/3 540 м
[Sc As trans Ci fib]
+23.9 +22.3 91 +31 +31 очень
душно
1011.6 1006.3
21 16.09 ЮЗ 2 2000 м дымка 5/3 540 м
[Sc As trans Ci fib]
+22.6 +21.9 96 +30 +30 очень
душно
1011.7 1006.4
00 17.09 штиль 0 1200 м мгла 6/3 600 м
[Sc As op Ci fib]
+22.8 +21.8 94 +31 +32 очень
душно
1013.4 1008.2 +22.0
03 17.09 В 3 6000 м 8/4 540 м
[Cu med, cong As op Ci fib]
+30.0 +22.9 66 +40 +46 очень
душно
1013.6 1008.3
06 17.09 С 3 7000 м 8/4 540 м
[Cu med, cong As op Ci fib]
+33.2 +21.8 51 +41 +48 опасность
перегрева
1010.7 1005.4
09 17.09 С 6 7000 м 8/4 540 м
[Cu med, cong As op Ci fib]
+32.2 +22.2 56 +41 +42 опасность
перегрева
1009.7 1004.4
12 17.09 В 3 8000 м 8/4 540 м
[Cu med, cong As op Ci fib]
+28.1 +24.0 78 +39 +39 очень
душно
1012.0 1006.8 0.0 812
15 17.09 ЮВ 2 7000 м 9/4 600 м
[Sc As trans Ci sp]
+27.4 +22.7 76 +36 +36 очень
душно
1013.5 1008.2
18 17.09 штиль 0 6000 м 9/4 600 м
[Sc As trans Ci fib]
+25.3 +22.6 85 +33 +33 очень
душно
1013.1 1007.8
21 17.09 штиль 0 5000 м мгла 8/3 600 м
[Sc As trans Ci fib]
+24.4 +22.5 89 +32 +32 очень
душно
1012.9 1007.6
00 18.09 штиль 0 2400 м дымка 6/1 600 м
[Sc As trans Ci fib]
+24.0 +22.3 90 +31 +33 очень
душно
1014.2 1008.9 +22.4
03 18.09 СВ 2 6000 м 4/4 540 м
[Cu hum As trans Ci fib]
+31.0 +23.0 62 +41 +51 опасность
перегрева
1014.2 1008.9
06 18.09 СЗ 4 6000 м 8/4 540 м
[Cu med, cong As trans Ci fib]
+34.3 +22.3 50 +43 +49 опасность
перегрева
1011.0 1005.7
09 18.09 СВ 2 9000 м 9/5 540 м
[Sc As op Ci fib]
+32.2 +22.8 58 +42 +44 опасность
перегрева
1010.4 1005.1
12 18.09 штиль 0 10 км 9/5 540 м
[Sc As op Ci fib]
+28.6 +23.2 73 +39 +39 очень
душно
1012.8 1007.5 +35.2
15 18.09 Ю 2 8000 м 9/5 540 м
[Sc As trans Ci fib]
+25.5 +20.3 73 +31 +31 очень
душно
1013.9 1008.6
18 18.09 ЮЗ 2 7000 м 9/5 540 м
[Sc As trans Ci sp]
+24.2 +21.6 85 +31 +31 очень
душно
1012.8 1007.5
21 18.09 штиль 0 4000 м мгла 9/6 540 м
[Sc As trans Ci sp]
+24.6 +22.1 86 +32 +32 очень
душно
1012.2 1006.9
00 19.09 штиль 0 2000 м мгла 9/4 600 м
[Sc As trans Ci sp]
+25.3 +22.5 84 +33 +34 очень
душно
1014.0 1008.7 +23.2
03 19.09 В 2 4000 м 9/4 540 м
[Sc As trans Ci sp]
+30.3 +22.4 63 +40 +45 очень
душно
1013.8 1008.5
06 19.09 СВ 3 6000 м 9/4 540 м
[Sc As trans Ci sp]
+32.9 +22.4 54 +42 +48 опасность
перегрева
1010.8 1005.5
09 19.09 СЗ 5 10 км 9/5 540 м
[Sc As op Ci sp]
+32.3 +22.1 55 +41 +42 опасность
перегрева
1010.0 1004.7
12 19.09 СВ 2 10 км 9/5 540 м
[Sc As op Ci sp]
+28.5 +22.3 69 +37 +37 очень
душно
1012.0 1006.8 +35.5
15 19.09 штиль 0 8000 м 10/5 540 м
[Sc As op]
+27.4 +23.1 77 +37 +37 очень
душно
1012.8 1007.6
18 19.09 ЮЗ 2 5000 м мгла 10/5 540 м
[Sc As op]
+25.9 +22.8 83 +34 +34 очень
душно
1012.1 1006.9
21 19.09 В 1 5000 м мгла 9/5 540 м
[Sc As op Ci sp]
+25.0 +22.8 88 +33 +33 очень
душно
1011.8 1006.5
00 20.09 Ю 1 4000 м мгла 3/0 300 м
[Ci fib]
+24.6 +21.3 82 +31 +33 очень
душно
1013.2 1008.0 +23.3
03 20.09 СВ 2 6000 м 6/1 600 м
[Sc As trans Ci fib]
+31.0 +21.5 57 +39 +51 опасность
солнечного
удара
1013.5 1008.2
06 20.09 СВ 4 7000 м 8/3 540 м
[Cu hum As op Ci sp]
+33.0 +20.8 49 +40 +47 очень
душно
1010.9 1005.6
09 20.09 С 5 10 км 5/4 540 м
[Cu hum As trans Ci fib]
+32.1 +21.4 53 +40 +41 очень
душно
1009.8 1004.5
12 20.09 С 2 8000 м 10/5 540 м
[Sc As op]
+28.8 +21.3 64 +36 +36 очень
душно
1012.2 1006.9 +33.6
15 20.09 З 2 5000 м мгла 10/5 540 м
[Sc As op]
+26.1 +20.8 73 +33 +33 очень
душно
1013.2 1007.9
18 20.09 штиль 0 1900 м мгла 6/3 600 м
[Sc As trans Ci fib]
+23.6 +20.8 84 +29 +29 душно 1012.5 1007.2
21 20.09 штиль 0 2900 м мгла 6/3 600 м
[Sc As trans Ci fib]
+23.0 +20.9 88 +30 +30 очень
душно
1012.2 1006.9
00 21.09 штиль 0 1900 м мгла 5/0 600 м
[As trans Ci fib]
+22.2 +20.6 91 +29 +31 очень
душно
1013.2 1007.9 +21.2
03 21.09 Ю 3 10 км 4/1 540 м
[Cu hum As trans Ci fib]
+30.4 +20.2 54 +37 +48 очень
душно
1013.6 1008.3

 

Местоположение метеостанции Чуруг (Индонезия): широта -6.23 долгота 106.65 высота над уровнем моря 46 м.

В архиве по умолчанию представлена погода в Чуруге за последнюю неделю. Архивные данные за месяц целиком и за предыдущие месяцы, начиная с января 2011 года, Вы можете получить, выбрав интересующий диапазон дат из раскрывающегося списка и нажав кнопку "Ввод!".


*Определитесь, кто Вы:
робот инопланетянин человек

Внимание! Время в таблицах - всемирное. Для получения местного времени необходимо прибавить поправку, которая равна 7 ч.

Смотрите также архив погоды в соседних городах и на ближайших метеорологических станциях:

Погода в Аэропорту Сукарно-Хатта (Индонезия) (12 км)
Погода в Джакарте (Индонезия) (21 км)
Погода в Джакарта порту (Индонезия) (28 км)
Погода в Серанге (Индонезия) (59 км)
Погода в Цитеко (Индонезия) (61 км)
Погода в Бандунге (Индонезия) (127 км)
Погода в Сиребоне (Индонезия) (187 км)
Погода в Танджунгкаранге (Индонезия) (206 км)
Погода в Тегале (Индонезия) (285 км)
Погода в Чилачапе (Индонезия) (309 км)

Пояснения к столбцам:

Ветер - указаны скорость ветра в м/с - средняя за 10 мин, порывы в срок и между сроками (в фигурных скобках) и направление, откуда дует ветер: С - северный, СВ - северо-восточный, В - восточный, ЮВ - юго-восточный, Ю - южный, ЮЗ - юго-западный, З - западный, СЗ - северо-западный.
Видимость - горизонтальная дальность видимости в метрах или километрах. При видимости от 1 до 10 км при отсутствии осадков обычно наблюдается дымка, при ухудшении видимости до 1 км и менее - туман. В сухую погоду видимость может ухудшаться дымом, пылью или мглою.
Явления - указаны атмосферные явления, наблюдавшиеся в срок или в последний час перед сроком; фигурными скобками обозначены явления, наблюдавшиеся между сроками (за 1-3 часа до срока); квадратными скобками обозначены град или гололедные отложения с указанием их диаметра в мм.
Облачность - указаны через наклонную черту общая и нижняя облачность в баллах и высота нижней границы облаков в метрах; квадратными скобками обозначены формы облаков: Ci - перистые, Cs - перисто-слоистые, Cc - перисто-кучевые, Ac - высококучевые, As - высокослоистые, Sc - слоисто-кучевые, Ns - слоисто-дождевые, Cu - кучевые, Cb - кучево-дождевые. Подробнее классификацию облаков см. в Атласе облаков (PDF).
T - Температура воздуха - температура, измеренная на высоте 2 м над землей.
Td - Температура точки росы - температура, при понижении до которой содержащийся в воздухе водяной пар достигнет насыщения.
f - Относительная влажность воздуха - влажноcть воздуха, измеренная на высоте 2 м над землей.
Te - Эффективная температура - температура, которую ощущает одетый по сезону человек в тени. Характеристика душности погоды. При расчете учитывается влияние влажности воздуха и скорости ветра на теплоощущения человека.
Tes - Эффективная температура на солнце - температура, которую ощущает человек, с поправкой на солнечный нагрев. Характеристика знойности погоды. Зависит от высоты солнца над горизонтом, облачности и скорости ветра. Ночью, в пасмурную погоду, а также при ветре 12 м/с и более поправка равна нулю.
P - Атмосферное давление - приведенное к уровню моря атмосферное давление.
Po - Атмосферное давление - измеренное на уровне метеостанции атмосферное давление.
Tmin - Минимальная температура - минимум температуры воздуха на высоте 2 м над землей.
Tmax - Максимальная температура - максимум температуры воздуха на высоте 2 м над землей.
R - Количество осадков - Количество выпавших осадков за период времени, мм. При наведении курсора мыши на число - период времени, за который выпало указанное количество осадков.
R24 - Количество осадков - Количество выпавших осадков за 24 часа, мм.
S - Снежный покров - Высота снежного покрова, см. При наведении курсора мыши на число - состояние снежного покрова и степень покрытия местности в баллах.